www.pogodaiklimat.ru

Погода и климат >> Архив погоды >> Германия >> Киль маяк


ПОГОДА в Киль маяке

  • Прогноз погоды в Киль маяке
  • Монитор погоды в Киль маяке

АРХИВ ПОГОДЫ в Киль маяке

Время (UTC), дата Ветер
(напр.,м/с)
 
Видим.   Явления Облачность Т
(С)
Тd
(С)
f
(%)
Тe
(С)
Тes
(С)
Комфортность P
(гПа)
Po
(гПа)
Тmin
(С)
Tmax
(С)
R
(мм)
R24
(мм)
S
(см)
13 18.06 Ю 5-7
{8}
н/о н/о +24.4 +15.3 57 +27 +27 жарко 1014.6 1011.6
14 18.06 Ю 8-9
{9}
н/о н/о +25.9 +14.3 49 +28 +28 жарко 1013.9 1010.9
15 18.06 Ю 7-14
{14}
н/о н/о +24.8 +14.7 53 +27 +27 жарко 1013.8 1010.8
16 18.06 Ю 6-8
{19}
н/о н/о +24.1 +12.6 49 +26 +26 жарко 1013.1 1010.1
17 18.06 ЮЗ 10-25
{25}
н/о н/о +16.0 +15.0 94 +14 +14 1014.7 1011.6
18 18.06 СВ 8-9
{25}
н/о н/о +19.2 +14.3 73 +20 +20 1013.0 1009.9 +15.2 +26.2
19 18.06 В 6-9
{16}
н/о н/о +20.0 +14.1 69 +22 +22 комфорт 1013.0 1010.0
20 18.06 В 5-6
{9}
н/о н/о +19.2 +15.1 77 +20 +20 1013.5 1010.4
21 18.06 ЮВ 5-7
{16}
н/о н/о +21.5 +12.8 58 +24 +24 комфорт 1013.0 1010.0
22 18.06 В 7-9
{10}
н/о н/о +21.2 +13.8 63 +24 +24 комфорт 1012.8 1009.8
23 18.06 В 5-6
{7}
н/о н/о +19.2 +15.0 77 +20 +20 1012.6 1009.6
00 19.06 ЮВ 3-3
{16}
н/о н/о +19.1 +15.5 80 +21 +21 комфорт 1012.2 1009.2
01 19.06 В 4-5
{6}
н/о н/о +18.8 +15.2 80 +20 +20 1011.8 1008.7
02 19.06 В 4-5
{5}
н/о н/о +18.1 +15.2 83 +18 +18 1011.4 1008.3
03 19.06 В 5-5
{6}
н/о н/о +18.2 +15.3 83 +18 +18 1010.7 1007.6
04 19.06 В 6-7
{7}
н/о н/о +18.2 +14.7 80 +18 +18 1010.3 1007.2
05 19.06 В 6-7
{8}
н/о н/о +18.0 +14.9 82 +17 +17 1009.9 1006.8
06 19.06 С 5-6
{8}
н/о н/о +17.7 +15.4 86 +17 +17 1010.2 1007.1 +17.6 +23.7
07 19.06 СВ 7-8
{8}
н/о н/о +18.4 +14.9 80 +18 +18 1009.7 1006.7
08 19.06 СВ 6-7
{8}
н/о н/о +18.7 +15.3 81 +19 +19 1009.7 1006.7
09 19.06 В 8-9
{10}
н/о н/о +17.8 +15.1 84 +17 +17 1009.3 1006.2
10 19.06 В 10-11
{11}
н/о н/о +19.2 +14.8 76 +20 +20 1008.7 1005.7
11 19.06 В 10-10
{11}
н/о н/о +19.7 +14.6 72 +21 +21 комфорт 1008.3 1005.3
12 19.06 В 9-10
{11}
н/о н/о +20.2 +16.5 79 +22 +22 комфорт 1007.8 1004.8
13 19.06 ЮВ 9-10
{11}
н/о н/о +23.8 +16.1 62 +27 +27 жарко 1007.3 1004.3
14 19.06 ЮВ 6-9
{14}
н/о н/о +24.8 +16.4 60 +28 +28 жарко 1006.2 1003.2
15 19.06 ЮВ 6-7
{14}
н/о н/о +25.4 +16.4 57 +29 +29 душно 1006.0 1003.0
16 19.06 СВ 3-6
{10}
н/о н/о +25.5 +16.1 56 +29 +29 душно 1006.3 1003.3
17 19.06 В 8-9
{9}
н/о н/о +23.6 +15.5 60 +27 +27 жарко 1005.3 1002.3
18 19.06 ЮЗ 18-26
{26}
н/о н/о +22.8 +10.4 45 +25 +25 комфорт 1007.6 1004.6 +17.6 +26.7
19 19.06 Ю 6-7
{25}
н/о н/о +18.4 +14.5 78 +18 +18 1006.8 1003.8
20 19.06 ЮВ 6-7
{8}
н/о н/о +19.1 +13.5 70 +20 +20 1006.4 1003.4
21 19.06 ЮЗ 7-7
{25}
н/о н/о +19.2 +13.9 71 +20 +20 1006.4 1003.4
22 19.06 ЮЗ 7-8
{8}
н/о н/о +19.2 +13.7 70 +20 +20 1006.5 1003.5
23 19.06 ЮЗ 7-7
{8}
н/о н/о +18.1 +14.9 82 +18 +18 1006.7 1003.7
00 20.06 ЮЗ 12-14
{25}
н/о н/о +17.8 +14.7 82 +16 +16 1006.9 1003.9
01 20.06 Ю 4-4
{12}
н/о н/о +18.2 +14.6 80 +18 +18 1005.8 1002.8
02 20.06 Ю 7-8
{8}
н/о н/о +17.5 +15.4 87 +17 +17 1006.3 1003.3
03 20.06 ЮЗ 5-6
{12}
н/о н/о +17.0 +15.6 91 +16 +16 1006.4 1003.3
04 20.06 ЮЗ 6-7
{7}
н/о н/о +16.6 +15.4 93 +15 +15 1006.5 1003.4
05 20.06 ЮЗ 8-9
{9}
н/о н/о +16.7 +15.0 90 +15 +15 1006.5 1003.4
06 20.06 ЮЗ 9-10
{14}
н/о н/о +16.5 +15.0 91 +15 +15 1007.1 1004.0 +16.4 +22.6
07 20.06 ЮЗ 8-11
{11}
н/о н/о +17.1 +15.3 89 +16 +16 1007.3 1004.2
08 20.06 ЮЗ 7-8
{11}
н/о н/о +17.9 +15.5 86 +17 +17 1007.8 1004.8
09 20.06 З 6-8
{11}
н/о н/о +18.0 +15.6 86 +17 +17 1008.3 1005.3
10 20.06 ЮЗ 7-9
{10}
н/о н/о +18.2 +15.7 85 +18 +18 1008.6 1005.6
11 20.06 ЮЗ 10-12
{13}
н/о н/о +18.3 +14.8 80 +18 +18 1009.1 1006.1
12 20.06 З 9-11
{13}
н/о н/о +17.8 +13.9 78 +17 +17 1009.9 1006.8
13 20.06 З 8-9
{10}
н/о н/о +17.8 +14.1 79 +17 +17 1010.3 1007.2
14 20.06 З 7-8
{10}
н/о н/о +18.1 +13.9 76 +17 +17 1010.4 1007.3
15 20.06 З 7-8
{10}
н/о н/о +18.8 +13.8 73 +19 +19 1010.4 1007.4
16 20.06 З 6-6
{8}
н/о н/о +18.8 +13.5 71 +19 +19 1010.5 1007.5
17 20.06 З 7-8
{8}
н/о н/о +18.7 +13.5 72 +19 +19 1010.8 1007.7
18 20.06 З 8-9
{10}
н/о н/о +18.3 +12.9 71 +18 +18 1011.1 1008.0 +16.5 +19.1
19 20.06 З 6-6
{8}
н/о н/о +17.9 +13.4 75 +17 +17 1011.5 1008.4
20 20.06 З 6-7
{7}
н/о н/о +17.6 +13.4 76 +17 +17 1012.3 1009.2
21 20.06 З 5-6
{8}
н/о н/о +17.2 +12.9 76 +17 +17 1012.8 1009.7
22 20.06 З 5-6
{8}
н/о н/о +16.6 +12.8 78 +16 +16 1013.4 1010.3
23 20.06 З 6-7
{8}
н/о н/о +16.0 +12.9 82 +15 +15 1013.5 1010.4
00 21.06 З 7-8
{8}
н/о н/о +15.5 +12.4 82 +14 +14 1013.7 1010.6
01 21.06 З 6-7
{8}
н/о н/о +15.1 +12.7 86 +13 +13 1014.2 1011.1
02 21.06 СЗ 5-7
{7}
н/о н/о +14.9 +12.1 83 +13 +13 1014.4 1011.3
03 21.06 З 5-6
{8}
н/о н/о +14.8 +11.8 82 +13 +13 1014.6 1011.5
04 21.06 З 5-6
{6}
н/о н/о +14.4 +12.7 90 +13 +13 1015.0 1011.9
05 21.06 ЮЗ 7-8
{8}
н/о н/о +14.2 +12.2 88 +12 +12 1015.4 1012.3
06 21.06 З 5-6
{8}
н/о н/о +15.3 +11.9 80 +14 +14 1015.6 1012.5 +14.2 +18.3
07 21.06 З 5-6
{6}
н/о н/о +16.1 +11.4 74 +15 +15 1016.1 1013.0
08 21.06 ЮЗ 4-6
{6}
н/о н/о +17.1 +10.9 67 +17 +17 1016.4 1013.3
09 21.06 ЮЗ 9-11
{11}
н/о н/о +17.0 +10.8 67 +16 +16 1016.5 1013.4
10 21.06 ЮЗ 8-10
{10}
н/о н/о +17.5 +11.6 68 +16 +16 1016.8 1013.7
11 21.06 СЗ 5-6
{11}
н/о н/о +15.5 +11.7 78 +14 +14 1017.2 1014.1
12 21.06 СЗ 3-4
{11}
н/о н/о +17.2 +12.2 72 +17 +17 1017.3 1014.2
13 21.06 СЗ 3-4
{4}
н/о н/о +18.6 +12.4 67 +19 +19 1017.5 1014.4
14 21.06 З 9-10
{11}
н/о н/о +18.3 +9.9 58 +18 +18 1017.6 1014.5
15 21.06 З 9-10
{11}
н/о н/о +17.9 +8.7 55 +17 +17 1017.8 1014.7
16 21.06 З 9-10
{10}
н/о н/о +17.5 +8.3 55 +16 +16 1018.3 1015.2
17 21.06 З 8-9
{9}
н/о н/о +17.3 +8.6 57 +16 +16 1018.5 1015.4
18 21.06 З 8-10
{11}
н/о н/о +17.4 +8.4 55 +16 +16 1018.9 1015.8 +15.0 +18.7
19 21.06 З 8-9
{10}
н/о н/о +17.1 +9.1 59 +16 +16 1019.4 1016.3
20 21.06 З 8-9
{9}
н/о н/о +16.5 +8.2 58 +15 +15 1020.1 1017.0
21 21.06 СЗ 8-9
{10}
н/о н/о +15.8 +8.6 62 +14 +14 1020.8 1017.7
22 21.06 СЗ 8-10
{10}
н/о н/о +15.0 +9.4 69 +13 +13 1021.4 1018.3
23 21.06 СЗ 7-8
{10}
н/о н/о +14.9 +9.8 72 +13 +13 1022.0 1018.9
00 22.06 СЗ 6-8
{10}
н/о н/о +14.6 +9.4 71 +13 +13 1022.5 1019.4
01 22.06 З 6-7
{7}
н/о н/о +14.5 +9.4 71 +13 +13 1022.8 1019.7
02 22.06 СЗ 6-7
{7}
н/о н/о +14.0 +9.8 76 +12 +12 1023.1 1020.0
03 22.06 СЗ 6-7
{8}
н/о н/о +13.8 +10.0 78 +12 +12 1023.5 1020.4
04 22.06 СЗ 7-7
{8}
н/о н/о +14.0 +9.8 76 +12 +12 1023.7 1020.6
05 22.06 СЗ 5-6
{8}
н/о н/о +15.2 +10.2 72 +14 +14 1024.1 1021.0
06 22.06 СЗ 4-5
{8}
н/о н/о +16.2 +10.1 67 +16 +16 1024.4 1021.3 +13.7 +17.4
07 22.06 С 4-5
{5}
н/о н/о +15.2 +9.1 67 +14 +14 1024.9 1021.8
08 22.06 С 3-5
{5}
н/о н/о +15.1 +9.0 67 +14 +14 1025.3 1022.2
09 22.06 С 3-4
{5}
н/о н/о +15.3 +8.1 62 +15 +15 1025.5 1022.4
10 22.06 СВ 2-4
{5}
н/о н/о +16.2 +7.9 58 +16 +16 1025.8 1022.7
11 22.06 СВ 3-4
{4}
н/о н/о +16.4 +7.9 57 +16 +16 1025.7 1022.6
12 22.06 СВ 4-5
{6}
н/о н/о +15.7 +8.1 61 +15 +15 1025.5 1022.4
13 22.06 СВ 4-6
{6}
н/о н/о +16.3 +7.1 54 +16 +16 1025.3 1022.2
14 22.06 СВ 5-6
{6}
н/о н/о +16.3 +6.1 51 +15 +15 1025.1 1022.0
15 22.06 СВ 5-6
{6}
н/о н/о +16.1 +7.2 56 +15 +15 1024.9 1021.8
16 22.06 В 4-5
{6}
н/о н/о +16.1 +6.0 51 +15 +15 1024.6 1021.5
17 22.06 В 4-5
{6}
н/о н/о +16.3 +7.8 57 +16 +16 1024.2 1021.1
18 22.06 В 5-6
{6}
н/о н/о +16.5 +8.4 59 +16 +16 1023.9 1020.8 +14.8 +17.5
19 22.06 В 6-7
{7}
н/о н/о +16.5 +9.6 64 +15 +15 1023.6 1020.5
20 22.06 В 7-9
{9}
н/о н/о +16.6 +9.3 62 +15 +15 1023.8 1020.7
21 22.06 В 8-9
{9}
н/о н/о +16.6 +9.2 62 +15 +15 1023.6 1020.5
22 22.06 В 7-8
{9}
н/о н/о +16.6 +8.7 60 +15 +15 1024.0 1020.9
23 22.06 В 8-9
{9}
н/о н/о +16.7 +9.8 64 +15 +15 1024.1 1021.0
00 23.06 В 7-8
{9}
н/о н/о +16.4 +11.3 72 +15 +15 1024.1 1021.0
01 23.06 В 7-8
{8}
н/о н/о +16.4 +11.8 74 +15 +15 1024.3 1021.2
02 23.06 В 7-8
{8}
н/о н/о +16.6 +10.8 69 +15 +15 1024.3 1021.2
03 23.06 В 8-10
{10}
н/о н/о +16.5 +10.8 69 +15 +15 1024.5 1021.4
04 23.06 В 9-10
{10}
н/о н/о +16.4 +9.8 65 +15 +15 1024.3 1021.2
05 23.06 В 9-11
{11}
н/о н/о +16.5 +11.2 71 +15 +15 1024.4 1021.3
06 23.06 В 8-10
{11}
н/о н/о +16.7 +11.2 70 +15 +15 1024.6 1021.5 +16.3 +16.8
07 23.06 В 8-9
{10}
н/о н/о +16.7 +11.6 72 +15 +15 1024.8 1021.7
08 23.06 В 8-10
{10}
н/о н/о +17.0 +12.4 74 +16 +16 1024.8 1021.7
09 23.06 В 10-11
{11}
н/о н/о +17.0 +11.6 70 +15 +15 1024.7 1021.6
10 23.06 В 9-10
{11}
н/о н/о +17.1 +11.0 67 +16 +16 1025.1 1022.0
11 23.06 В 10-10
{10}
н/о н/о +17.1 +11.3 69 +16 +16 1025.0 1021.9
12 23.06 В 10-11
{11}
н/о н/о +17.4 +10.5 64 +16 +16 1024.8 1021.7
13 23.06 В 8-9
{10}
н/о н/о +17.8 +11.2 65 +17 +17 1025.1 1022.0
14 23.06 В 8-9
{9}
н/о н/о +18.0 +9.5 58 +17 +17 1024.6 1021.5
15 23.06 В 8-8
{10}
н/о н/о +18.1 +10.2 60 +17 +17 1024.3 1021.2
16 23.06 В 7-8
{8}
н/о н/о +18.1 +11.7 66 +17 +17 1024.0 1020.9
17 23.06 В 8-8
{8}
н/о н/о +18.2 +12.8 71 +18 +18 1023.8 1020.7
18 23.06 В 8-9
{10}
н/о н/о +18.1 +13.3 74 +17 +17 1023.8 1020.7 +16.6 +18.2
19 23.06 В 7-8
{9}
н/о н/о +17.9 +13.8 77 +17 +17 1023.9 1020.8
20 23.06 В 8-9
{9}
н/о н/о +18.0 +13.0 73 +17 +17 1024.1 1021.0
21 23.06 В 10-11
{11}
н/о н/о +18.0 +13.3 74 +17 +17 1024.4 1021.3
22 23.06 В 10-12
{12}
н/о н/о +17.6 +13.0 74 +16 +16 1024.6 1021.5
23 23.06 В 10-12
{12}
н/о н/о +17.4 +13.9 80 +16 +16 1024.7 1021.6
00 24.06 В 11-13
{13}
н/о н/о +17.4 +13.5 78 +16 +16 1025.0 1021.9
01 24.06 В 9-10
{12}
н/о н/о +17.3 +14.7 85 +16 +16 1025.5 1022.4
02 24.06 В 9-10
{10}
н/о н/о +17.5 +13.5 77 +16 +16 1025.4 1022.3
03 24.06 В 9-10
{12}
н/о н/о +17.0 +13.9 82 +16 +16 1025.1 1022.0
04 24.06 В 9-11
{11}
н/о н/о +17.0 +14.2 84 +16 +16 1025.4 1022.3
05 24.06 В 10-12
{12}
н/о н/о +17.2 +13.7 80 +16 +16 1025.6 1022.5
06 24.06 В 10-12
{12}
н/о н/о +17.2 +14.4 84 +16 +16 1025.6 1022.5 +16.9 +18.1
07 24.06 В 12-13
{13}
н/о н/о +17.3 +13.8 80 +16 +16 1025.5 1022.4
08 24.06 В 10-12
{13}
н/о н/о +17.5 +13.5 77 +16 +16 1026.0 1022.9
09 24.06 В 11-12
{13}
н/о н/о +17.6 +13.1 75 +16 +16 1025.6 1022.5
10 24.06 В 10-11
{11}
н/о н/о +17.9 +12.4 70 +17 +17 1025.8 1022.7
11 24.06 В 8-9
{10}
н/о н/о +18.2 +12.3 68 +18 +18 1025.5 1022.4
12 24.06 В 8-9
{13}
н/о н/о +18.1 +13.1 73 +17 +17 1025.4 1022.3
13 24.06 В 9-9
{10}
н/о н/о +18.7 +10.8 60 +18 +18 1025.2 1022.1
14 24.06 В 9-10
{10}
н/о н/о +18.9 +11.5 62 +19 +19 1025.0 1021.9
15 24.06 В 9-10
{10}
н/о н/о +19.1 +12.8 67 +19 +19 1024.4 1021.3
16 24.06 В 9-10
{11}
н/о н/о +19.6 +15.1 75 +21 +21 комфорт 1024.2 1021.1
17 24.06 В 12-14
{14}
н/о н/о +19.7 +14.6 72 +21 +21 комфорт 1023.6 1020.5
18 24.06 В 10-11
{14}
н/о н/о +19.2 +15.4 79 +20 +20 1023.5 1020.4 +17.2 +19.9
19 24.06 В 13-14
{15}
н/о н/о +19.2 +15.4 79 +20 +20 1022.8 1019.7
20 24.06 В 12-13
{14}
н/о н/о +19.5 +15.2 76 +20 +20 1022.9 1019.8
21 24.06 В 14-15
{16}
н/о н/о +19.7 +15.1 75 +21 +21 комфорт 1022.9 1019.8
22 24.06 В 13-14
{15}
н/о н/о +19.5 +14.3 72 +20 +20 1023.1 1020.0
23 24.06 В 11-13
{15}
н/о н/о +18.9 +14.3 75 +19 +19 1023.2 1020.1
00 25.06 В 10-12
{16}
н/о н/о +18.5 +14.0 75 +18 +18 1023.3 1020.2
01 25.06 В 10-11
{12}
н/о н/о +18.1 +13.3 74 +17 +17 1022.8 1019.7
02 25.06 В 9-10
{11}
н/о н/о +17.8 +13.9 78 +17 +17 1022.4 1019.3
03 25.06 В 9-11
{12}
н/о н/о +18.0 +13.3 74 +17 +17 1022.1 1019.0
04 25.06 В 9-10
{10}
н/о н/о +17.7 +14.5 82 +17 +17 1021.9 1018.8
05 25.06 В 7-9
{10}
н/о н/о +17.7 +15.3 86 +17 +17 1021.8 1018.7
06 25.06 В 8-9
{12}
н/о н/о +17.8 +15.6 87 +17 +17 1021.3 1018.2 +17.6 +19.9
07 25.06 В 8-8
{9}
н/о н/о +18.1 +15.6 85 +17 +17 1021.4 1018.3
08 25.06 В 7-8
{8}
н/о н/о +18.7 +15.2 80 +19 +19 1021.4 1018.3
09 25.06 В 7-7
{9}
н/о н/о +19.2 +15.8 81 +20 +20 1021.4 1018.3
10 25.06 В 8-9
{9}
н/о н/о +19.2 +16.2 83 +20 +20 1021.2 1018.1
11 25.06 В 10-11
{11}
н/о н/о +20.0 +16.8 82 +22 +22 комфорт 1020.6 1017.5
12 25.06 В 10-11
{11}
н/о н/о +21.5 +16.7 74 +25 +25 комфорт 1020.3 1017.3
13 25.06 В 9-10
{11}
н/о н/о +23.1 +17.1 69 +28 +28 душно 1020.1 1017.1

 

Местоположение метеостанции Киль маяк (Германия): широта 54.50 долгота 10.28 высота над уровнем моря 21 м.

В архиве по умолчанию представлена погода в Киль маяке за последнюю неделю. Архивные данные за месяц целиком и за предыдущие месяцы, начиная с января 2011 года, Вы можете получить, выбрав интересующий диапазон дат из раскрывающегося списка и нажав кнопку "Ввод!".


*Определитесь, кто Вы:
робот инопланетянин человек

Внимание! Время в таблицах - всемирное. Для получения местного времени необходимо прибавить поправку, которая равна 1 ч.

Смотрите также архив погоды в соседних городах и на ближайших метеорологических станциях:

Погода в Киле (Германия) (16 км)
Погода в Ольпенице (Германия) (25 км)
Погода в Дёрнике (Германия) (37 км)
Погода на Мысе Kegnaes (Дания) (43 км)
Погода в Шлезвиге (Германия) (47 км)
Погода в Шлезвиг аэропорту (Германия) (49 км)
Погода в Вестермаркельсдорфе (Германия) (51 км)
Погода в Хоне (Германия) (53 км)
Погода в Ланго (Дания) (58 км)
Погода в Тосинге (Дания) (61 км)

Пояснения к столбцам:

Ветер - указаны скорость ветра в м/с - средняя за 10 мин, порывы в срок и между сроками (в фигурных скобках) и направление, откуда дует ветер: С - северный, СВ - северо-восточный, В - восточный, ЮВ - юго-восточный, Ю - южный, ЮЗ - юго-западный, З - западный, СЗ - северо-западный.
Видимость - горизонтальная дальность видимости в метрах или километрах. При видимости от 1 до 10 км при отсутствии осадков обычно наблюдается дымка, при ухудшении видимости до 1 км и менее - туман. В сухую погоду видимость может ухудшаться дымом, пылью или мглою.
Явления - указаны атмосферные явления, наблюдавшиеся в срок или в последний час перед сроком; фигурными скобками обозначены явления, наблюдавшиеся между сроками (за 1-3 часа до срока); квадратными скобками обозначены град или гололедные отложения с указанием их диаметра в мм.
Облачность - указаны через наклонную черту общая и нижняя облачность в баллах и высота нижней границы облаков в метрах; квадратными скобками обозначены формы облаков: Ci - перистые, Cs - перисто-слоистые, Cc - перисто-кучевые, Ac - высококучевые, As - высокослоистые, Sc - слоисто-кучевые, Ns - слоисто-дождевые, Cu - кучевые, Cb - кучево-дождевые. Подробнее классификацию облаков см. в Атласе облаков (PDF).
T - Температура воздуха - температура, измеренная на высоте 2 м над землей.
Td - Температура точки росы - температура, при понижении до которой содержащийся в воздухе водяной пар достигнет насыщения.
f - Относительная влажность воздуха - влажноcть воздуха, измеренная на высоте 2 м над землей.
Te - Эффективная температура - температура, которую ощущает одетый по сезону человек в тени. Характеристика душности погоды. При расчете учитывается влияние влажности воздуха и скорости ветра на теплоощущения человека.
Tes - Эффективная температура на солнце - температура, которую ощущает человек, с поправкой на солнечный нагрев. Характеристика знойности погоды. Зависит от высоты солнца над горизонтом, облачности и скорости ветра. Ночью, в пасмурную погоду, а также при ветре 12 м/с и более поправка равна нулю.
P - Атмосферное давление - приведенное к уровню моря атмосферное давление.
Po - Атмосферное давление - измеренное на уровне метеостанции атмосферное давление.
Tmin - Минимальная температура - минимум температуры воздуха на высоте 2 м над землей.
Tmax - Максимальная температура - максимум температуры воздуха на высоте 2 м над землей.
R - Количество осадков - Количество выпавших осадков за период времени, мм. При наведении курсора мыши на число - период времени, за который выпало указанное количество осадков.
R24 - Количество осадков - Количество выпавших осадков за 24 часа, мм.
S - Снежный покров - Высота снежного покрова, см. При наведении курсора мыши на число - состояние снежного покрова и степень покрытия местности в баллах.